Change the Weather History Date:

Wednesday, May 21, 2014

  Actual Average (KEKA) Record (KEKA)
Temperature  
Mean Temperature 56 °F 54 °F  
Max Temperature 62 °F 61 °F 76 °F (2001)
Min Temperature 50 °F 48 °F 41 °F (1918)
Degree Days  
Heating Degree Days 9 11  
Month to date heating degree days 246  
Since 1 July heating degree days 4067  
Cooling Degree Days 0 0  
Month to date cooling degree days 0  
Year to date cooling degree days 0  
Growing Degree Days 6 (Base 50)    
Moisture  
Dew Point 51 °F    
Average Humidity 87    
Maximum Humidity 100    
Minimum Humidity 72    
Precipitation  
Precipitation 0.00 in 0.05 in 0.90 in (1990)
Month to date precipitation 1.29  
Year to date precipitation 22.04  
Since 1 July precipitation 39.09  
Snow  
Snow 0.00 in 0.00 in - ()
Month to date snowfall 0.0  
Since 1 July snowfall 0.2  
Snow Depth -    
Sea Level Pressure  
Sea Level Pressure 30.04 in    
Wind  
Wind Speed 8 mph (WNW)    
Max Wind Speed 20 mph    
Max Gust Speed 25 mph    
Visibility 9 miles    
Events      
T = Trace of Precipitation, MM = Missing Value Source: NWS Daily Summary

Daily Weather History Graph

Daily Weather History Graph

Search for Another Location

Airport or City:

Trip Planner

Search our weather history database for the weather conditions in past years. The results will help you decide how hot, cold, wet, or windy it might be!

Date:

Astronomy

May. 21, 2014 Rise Set
Actual Time 5:54 AM PDT 8:32 PM PDT
Civil Twilight 5:23 AM PDT 9:03 PM PDT
Nautical Twilight 4:43 AM PDT 9:43 PM PDT
Astronomical Twilight 3:59 AM PDT 10:28 PM PDT
Moon 1:42 AM PDT (5/21) 1:18 PM PDT (5/21)
Length of Visible Light 15h 40m
Length of Day
14h 37m
Waning Gibbous, 47% of the Moon is Illuminated
May 21
Waning Gibbous
May 28
New
Jun 5
First Quarter
Jun 12
Full
Jun 19
Last Quarter

Hourly Weather History & Observations

Time (PDT) Temp. Dew Point Humidity Pressure Visibility Wind Dir Wind Speed Gust Speed Precip Events Conditions
12:15 AM 53.6 °F 50.0 °F 88% 30.08 in 10.0 mi NW 11.5 mph - N/A   Overcast
12:35 AM 53.6 °F 50.0 °F 88% 30.08 in 10.0 mi NW 8.1 mph - N/A   Overcast
12:55 AM 53.6 °F 50.0 °F 88% 30.07 in 8.0 mi WNW 6.9 mph - N/A   Overcast
1:15 AM 51.8 °F 50.0 °F 94% 30.07 in 6.0 mi WNW 6.9 mph - N/A   Overcast
1:35 AM 51.8 °F 50.0 °F 94% 30.07 in 7.0 mi WNW 9.2 mph - N/A   Overcast
2:15 AM 51.8 °F 50.0 °F 94% 30.06 in 7.0 mi West 6.9 mph - N/A   Overcast
2:35 AM 51.8 °F 50.0 °F 94% 30.06 in 7.0 mi West 5.8 mph - N/A   Overcast
2:55 AM 51.8 °F 50.0 °F 94% 30.05 in 6.0 mi West 4.6 mph - N/A   Overcast
3:15 AM 51.8 °F 50.0 °F 94% 30.05 in 5.0 mi West 6.9 mph - N/A   Overcast
3:35 AM 51.8 °F 50.0 °F 94% 30.05 in 4.0 mi WNW 6.9 mph - N/A   Overcast
4:15 AM 51.8 °F 50.0 °F 94% 30.05 in 3.0 mi WNW 5.8 mph - N/A   Overcast
4:35 AM 50.0 °F 50.0 °F 100% 30.04 in 8.0 mi Calm Calm - N/A   Overcast
4:55 AM 50.0 °F 50.0 °F 100% 30.04 in 9.0 mi West 3.5 mph - N/A   Overcast
5:15 AM 50.0 °F 48.2 °F 94% 30.04 in 10.0 mi West 3.5 mph - N/A   Overcast
5:35 AM 50.0 °F 50.0 °F 100% 30.05 in 10.0 mi West 3.5 mph - N/A   Overcast
5:55 AM 50.0 °F 50.0 °F 100% 30.05 in 7.0 mi Calm Calm - N/A   Overcast
6:15 AM 50.0 °F 50.0 °F 100% 30.05 in 5.0 mi NW 3.5 mph - N/A   Overcast
6:35 AM 50.0 °F 50.0 °F 100% 30.06 in 3.0 mi WNW 5.8 mph - N/A   Overcast
6:55 AM 50.0 °F 50.0 °F 100% 30.06 in 2.0 mi WNW 4.6 mph - N/A   Overcast
7:15 AM 50.0 °F 50.0 °F 100% 30.06 in 5.0 mi WNW 3.5 mph - N/A   Overcast
7:35 AM 51.8 °F 50.0 °F 94% 30.07 in 7.0 mi Calm Calm - N/A   Overcast
7:55 AM 51.8 °F 50.0 °F 94% 30.07 in 8.0 mi Calm Calm - N/A   Overcast
8:15 AM 53.6 °F 50.0 °F 88% 30.07 in 9.0 mi WSW 3.5 mph - N/A   Overcast
8:35 AM 53.6 °F 50.0 °F 88% 30.06 in 10.0 mi Calm Calm - N/A   Overcast
8:55 AM 53.6 °F 50.0 °F 88% 30.06 in 10.0 mi SE 3.5 mph - N/A   Overcast
9:15 AM 53.6 °F 50.0 °F 88% 30.06 in 10.0 mi Calm Calm - N/A   Mostly Cloudy
9:35 AM 53.6 °F 50.0 °F 88% 30.05 in 10.0 mi SSE 3.5 mph - N/A   Mostly Cloudy
9:55 AM 55.4 °F 50.0 °F 82% 30.05 in 10.0 mi Calm Calm - N/A   Mostly Cloudy
10:15 AM 55.4 °F 50.0 °F 82% 30.05 in 10.0 mi Calm Calm - N/A   Overcast
10:35 AM 57.2 °F 51.8 °F 82% 30.05 in 10.0 mi WNW 5.8 mph - N/A   Overcast
11:15 AM 57.2 °F 51.8 °F 82% 30.05 in 10.0 mi NW 11.5 mph - N/A   Overcast
11:35 AM 57.2 °F 51.8 °F 82% 30.06 in 10.0 mi WNW 12.7 mph 18.4 mph N/A   Mostly Cloudy
11:55 AM 57.2 °F 53.6 °F 88% 30.06 in 10.0 mi WNW 11.5 mph - N/A   Mostly Cloudy
12:35 PM 59.0 °F 53.6 °F 82% 30.05 in 10.0 mi West 11.5 mph 16.1 mph N/A   Overcast
12:55 PM 59.0 °F 53.6 °F 82% 30.04 in 10.0 mi West 15.0 mph - N/A   Mostly Cloudy
1:15 PM 59.0 °F 53.6 °F 82% 30.04 in 10.0 mi WNW 13.8 mph - N/A   Scattered Clouds
1:35 PM 59.0 °F 53.6 °F 82% 30.04 in 10.0 mi West 12.7 mph 17.3 mph N/A   Scattered Clouds
1:55 PM 60.8 °F 55.4 °F 82% 30.04 in 10.0 mi WNW 12.7 mph - N/A   Partly Cloudy
2:15 PM 62.6 °F 55.4 °F 77% 30.03 in 10.0 mi WNW 11.5 mph - N/A   Clear
2:35 PM 60.8 °F 53.6 °F 77% 30.03 in 10.0 mi WNW 15.0 mph 19.6 mph N/A   Clear
2:55 PM 59.0 °F 53.6 °F 82% 30.03 in 10.0 mi WNW 17.3 mph - N/A   Clear
3:15 PM 59.0 °F 53.6 °F 82% 30.03 in 10.0 mi WNW 17.3 mph 21.9 mph N/A   Clear
3:35 PM 59.0 °F 53.6 °F 82% 30.03 in 10.0 mi WNW 15.0 mph - N/A   Clear
3:55 PM 59.0 °F 51.8 °F 77% 30.03 in 10.0 mi WNW 18.4 mph - N/A   Clear
4:15 PM 59.0 °F 51.8 °F 77% 30.03 in 10.0 mi WNW 18.4 mph 24.2 mph N/A   Clear
4:35 PM 59.0 °F 51.8 °F 77% 30.04 in 10.0 mi WNW 19.6 mph 25.3 mph N/A   Partly Cloudy
4:55 PM 59.0 °F 50.0 °F 72% 30.03 in 10.0 mi WNW 17.3 mph - N/A   Partly Cloudy
5:15 PM 59.0 °F 50.0 °F 72% 30.04 in 10.0 mi WNW 17.3 mph 24.2 mph N/A   Clear
5:35 PM 57.2 °F 50.0 °F 77% 30.04 in 10.0 mi WNW 16.1 mph 20.7 mph N/A   Clear
5:55 PM 57.2 °F 50.0 °F 77% 30.03 in 10.0 mi WNW 12.7 mph - N/A   Partly Cloudy
6:15 PM 57.2 °F 50.0 °F 77% 30.03 in 10.0 mi WNW 13.8 mph - N/A   Clear
6:35 PM 57.2 °F 50.0 °F 77% 30.02 in 10.0 mi WNW 17.3 mph - N/A   Clear
6:55 PM 55.4 °F 50.0 °F 82% 30.03 in 9.0 mi WNW 11.5 mph - N/A   Clear
7:15 PM 55.4 °F 50.0 °F 82% 30.02 in 9.0 mi WNW 12.7 mph - N/A   Clear
7:35 PM 55.4 °F 50.0 °F 82% 30.02 in 10.0 mi WNW 9.2 mph - N/A   Clear
7:55 PM 53.6 °F 50.0 °F 88% 30.02 in 9.0 mi NW 9.2 mph - N/A   Clear
8:15 PM 53.6 °F 50.0 °F 88% 30.02 in 9.0 mi WNW 10.4 mph - N/A   Mostly Cloudy
8:35 PM 53.6 °F 50.0 °F 88% 30.02 in 9.0 mi WNW 6.9 mph - N/A   Overcast
8:55 PM 53.6 °F 50.0 °F 88% 30.02 in 10.0 mi WNW 8.1 mph - N/A   Overcast
9:15 PM 53.6 °F 50.0 °F 88% 30.02 in 9.0 mi WNW 6.9 mph - N/A   Overcast
9:35 PM 53.6 °F 50.0 °F 88% 30.02 in 9.0 mi WNW 6.9 mph - N/A   Overcast
9:55 PM 53.6 °F 50.0 °F 88% 30.02 in 9.0 mi WNW 6.9 mph - N/A   Overcast
10:15 PM 53.6 °F 50.0 °F 88% 30.02 in 9.0 mi West 5.8 mph - N/A   Overcast
10:35 PM 53.6 °F 50.0 °F 88% 30.02 in 9.0 mi WNW 4.6 mph - N/A   Overcast
11:15 PM 53.6 °F 50.0 °F 88% 30.01 in 9.0 mi West 3.5 mph - N/A   Overcast
11:55 PM 53.6 °F 50.0 °F 88% 30.01 in 8.0 mi Calm Calm - N/A   Overcast